{"data":{"norad_id":55373,"epoch":"2026-09-20T13:40:37.969824Z","epoch_age_seconds":90644,"freshness":"FRESH","line1":"1 55373U 23013AU  26263.56988391  .00015279  00000+0  56461-3 0  9998","line2":"2 55373  43.0059 301.2817 0001646 271.0706  88.9957 15.27521099201266","mean_motion":15.27521099,"eccentricity":0.0001646,"inclination_deg":43.0059,"raan_deg":301.2817,"arg_perigee_deg":271.0706,"mean_anomaly_deg":88.9957,"bstar":0.00056461,"rev_number":20126,"period_min":94.270383626302,"perigee_km":482.09609222754,"apogee_km":484.35485275348,"semimajor_km":6861.3624724905,"source":"CELESTRAK","updated_at":"2026-09-21T09:00:33.209816Z"}}